User: anonymous   Login
Location: Unspecified
(0.0000°N, 0.0000°E)
Time: 03:53:46
(UTC+00:00)
Language:

Kosmos-1304 - Orbit

View from above orbital plane
View from above orbital plane
View from above satellite
View from above satellite

Ground track
Ground track

The orbit data is extracted from the following two-line orbital elements,

1 12803U 81087A   18017.51558599 +.00000036 +00000-0 +17073-4 0  9993
2 12803 082.9332 211.7600 0045411 339.2416 020.6901 13.87461943216792
Epoch (UTC): 17 January 2018 12:22:26
Eccentricity: 0.0045411
inclination: 82.9332°
perigee height: 904 km
apogee height: 971 km
right ascension of ascending node: 211.7600°
argument of perigee: 339.2416°
revolutions per day: 13.87461943
mean anomaly at epoch: 20.6901°
orbit number at epoch: 21679

The dashed part of the orbit path shows where the satellite is in the earth's shadow,  

DLR